Location: Huntsville
(41.2590°N, 111.7678°W)
Time: 08:20:01
(UTC+00:00)

SR - Visible Passes

Search period start: 25 September 2022 00:00
Search period end: 05 October 2022 00:00
Orbit: 573 x 879 km, 66.7° (Epoch: 24 September)

Date Brightness Start Highest point End Pass type
(mag) Time Alt. Az. Time Alt. Az. Time Alt. Az.
26 Sep ? 12:43:34 10° NNE 12:45:20 11° NNE 12:47:04 10° NE visible
28 Sep ? 12:43:59 10° N 12:47:34 17° NE 12:50:58 10° E visible
29 Sep ? 11:55:29 10° NNE 11:56:37 11° NNE 11:57:44 10° NE visible
30 Sep ? 12:45:02 10° N 12:49:38 27° NE 12:53:54 10° ESE visible
01 Oct ? 11:55:33 10° N 11:58:51 16° NE 12:02:02 10° ENE visible
02 Oct ? 12:46:20 10° NNW 12:51:31 44° NE 12:56:13 10° SE visible
03 Oct ? 11:56:31 10° N 12:00:56 25° NE 12:05:03 10° E visible
04 Oct ? 11:07:06 10° N 11:10:08 15° NE 11:13:03 10° ENE visible
04 Oct ? 12:47:49 10° NNW 12:53:12 79° ENE 12:58:04 10° SSE visible
